This demonstration page uses our WeatherBlox Daily Observations layout. Learn more.

Left ArrowRight Arrow

39.92423, -83.80882

Hourly Observations for August 28, 2020

Temp ( °F °C ) Dew Point ( °F °C ) Humidity (%) Winds ( mph kmh ) Pressure ( in mb ) Visibility ( mi km ) Precip ( " mm )
12:56 am 00:56 Clear 74 23.3 74 23.3 100 100 SW 6 9 29.96 1014 10 16 N/A
1:56 am 01:56 Clear 74 23.3 74 23.3 100 100 SW 5 7 29.94 1014 10 16 N/A
2:56 am 02:56 Mostly Clear 74 23.3 74 23.3 100 100 SSW 6 9 29.93 1013 10 16 N/A
3:56 am 03:56 Clear 73 22.8 73 22.8 100 100 SSW 3 6 29.91 1013 8 13 N/A
4:56 am 04:56 Clear 74 23.3 74 23.3 100 100 SSW 3 6 29.90 1013 7 11 N/A
5:56 am 05:56 Clear 74 23.3 74 23.3 100 100 SW 7 11 29.89 1012 7 11 N/A
6:31 am 06:31 Mostly Clear with Mist and Fog 73 23 73 23 100 100 SW 7 11 29.88 1012 6 10 N/A
6:56 am 06:56 Partly Cloudy with Mist and Fog 74 23.3 74 23.3 100 100 SW 5 7 29.91 1013 6 10 N/A
7:56 am 07:56 Sunny with Mist and Fog 74 23.3 74 23.3 100 100 SW 5 7 29.92 1013 5 8 N/A
8:56 am 08:56 Mostly Cloudy 76 24.4 76 24.4 100 100 SSW 3 6 29.93 1014 9 14 N/A
9:56 am 09:56 Sunny 77 25 77 25 100 100 SSW 5 7 29.94 1014 10 16 N/A
10:56 am 10:56 Sunny 80 26.7 77 25 90 90 SW 5 7 29.91 1013 10 16 N/A
11:56 am 11:56 Mostly Cloudy 81 27.2 77 25 88 88 SSW 5 7 29.90 1013 10 16 N/A
12:11 pm 12:11 Mostly Cloudy with Nearby Thunderstorms 82 28 77 25 84 84 SSW 9 15 29.85 1011 10 16 N/A
12:40 pm 12:40 Partly Cloudy 82 28 77 25 84 84 SW 7 11 29.85 1011 10 16 N/A
12:56 pm 12:56 Partly Cloudy 84 28.9 77 25 80 80 SW 7 11 29.88 1012 10 16 N/A
1:56 pm 13:56 Mostly Cloudy 83 28.3 76 24.4 79 79 VRB 7 11 29.83 1010 10 16 N/A
2:49 pm 14:49 Partly Cloudy with Nearby Thunderstorms 79 26 75 24 89 89 SSW 7 11 29.80 1009 9 14 0.00 0.00
2:56 pm 14:56 Partly Cloudy with Nearby Thunderstorms 78 25.6 76 24.4 93 93 SW 8 13 29.82 1010 9 14 0.00 0.00
3:13 pm 15:13 Mostly Sunny 79 26 73 23 84 84 WSW 7 11 29.79 1009 10 16 N/A
3:56 pm 15:56 Sunny 81 27.2 75 23.9 82 82 VRB 7 11 29.79 1009 10 16 N/A
4:56 pm 16:56 Mostly Sunny 80 26.7 78 25.6 94 94 SSW 8 13 29.77 1008 10 16 0.00 0.00
5:56 pm 17:56 Sunny 80 26.7 74 23.3 82 82 SW 8 13 29.78 1009 10 16 N/A
6:56 pm 18:56 Cloudy 79 26.1 74 23.3 85 85 SW 5 7 29.79 1009 10 16 N/A
7:56 pm 19:56 Cloudy 77 25 75 23.9 94 94 SSW 3 6 29.78 1008 10 16 N/A
8:56 pm 20:56 Clear 74 23.3 74 23.3 100 100 S 5 7 29.75 1008 10 16 0.00 0.00
9:56 pm 21:56 Clear 73 22.8 73 22.8 100 100 S 5 7 29.76 1008 10 16 N/A
10:56 pm 22:56 Mostly Clear 72 22.2 72 22.2 100 100 S 6 9 29.74 1007 10 16 N/A
11:56 pm 23:56 Mostly Clear 72 22.2 72 22.2 100 100 SSW 7 11 29.71 1006 10 16 N/A

Powered by AerisWeather